Regional Weather Roundup
Issued by NWS Grand Forks, ND

Home | Current Version | Previous Version | Text Only | Print | Product List | Glossary On
Versions: 1 2 3 4 5 6 7 8 9 10 11 12 13 14 15 16 17 18 19 20 21 22 23 24 25 26 27 28 29 30 31 32 33 34 35 36 37 38 39 40 41 42 43 44 45 46 47 48 49 50
000
ASUS43 KFGF 271331
RWRFGF
PRAIRIE TO PINES  WEATHER ROUNDUP
NATIONAL WEATHER SERVICE EASTERN NORTH DAKOTA/GRAND FORKS ND
800 AM CDT WED JUL 27 2016

 **SATELLITE DATA USED TO AUGMENT SKY COVER AT AUTOMATED STATIONS**
 *****  WEATHER ACROSS EASTERN NORTH DAKOTA  *****

CITY           SKY/WX    TMP DP  RH WIND       PRES   REMARKS
GRAND FORKS    MOSUNNY   63  58  83 N9        30.06R
GRAND FRKS AFB SUNNY     63  58  83 N10       30.07R
GRAND FRKS NWS   N/A     63 N/A N/A N5          N/A
DEVILS LAKE    MOSUNNY   63  56  78 NE7       30.11R
FARGO          CLOUDY    65  61  87 N12       30.02R
WAHPETON ARPT  CLOUDY    64  63  94 NW7       29.99R
$$

 ***** WEATHER ACROSS CENTRAL AND WESTERN NORTH DAKOTA  *****

CITY           SKY/WX    TMP DP  RH WIND       PRES   REMARKS
BISMARCK       MOSUNNY   65  62  90 CALM      30.10R
MINOT          SUNNY     64  58  80 CALM      30.11S
JAMESTOWN      SUNNY     65  61  87 NE8       30.06S
MINOT AFB      MOSUNNY   61  57  85 N5        30.11S
GARRISON         N/A     64  62  93 NE3       30.11S
WILLISTON      CLOUDY    63  54  72 N6        30.11F
DICKINSON      CLOUDY    58  56  93 CALM      30.11F
HETTINGER      CLOUDY    62  60  93 NE8       30.13F FOG
$$

 *****  OTHER AIRPORT OBSERVATIONS IN OUR AREA  *****

CITY           SKY/WX    TMP DP  RH WIND       PRES   REMARKS
WALHALLA       FAIR      61  57  88 NW8       30.11R
GRAFTON AIRPOR FAIR      63  59  88 N10       30.09R
VALLEY CITY AR FAIR      66  63  88 NE9       30.08S
CANDO          CLOUDY    59  57  94 NE10      30.14S
CAVALIER APRT  FAIR      61  57  88 N12       30.09S
GWINNER        PTSUNNY   66  64  94 N10       30.05R
SHEYENNE NWR     N/A     65  62  90 N7        29.95S
ROLLA          CLOUDY    59  57  94 NE9       30.15F
 ***** THE ABOVE OBSERVATIONS ARE NON NWS ARE NOT QUALITY
       CONTROLLED AND MAY MIS-REPORT RAIN FOR SNOW...
$$

  *****  WEATHER ACROSS NORTHERN MINNESOTA  *****

CITY           SKY/WX    TMP DP  RH WIND       PRES   REMARKS
FLAG ISLAND    CLOUDY    64  55  72 NE9       30.06R
WARROAD        PTSUNNY   66  63  88 NE9       30.05R
ROSEAU         PTSUNNY   61  55  82 N6        30.05R
HALLOCK        SUNNY     61  57  88 N7        30.07R
THF RVR FALLS  MOSUNNY   64  55  72 N9        30.05S
BAUDETTE       MOSUNNY   64  56  75 NE8       30.04R
WASKISH        PTSUNNY   64  61  88 E5        30.03R
CROOKSTON      CLOUDY    64  57  77 N6        30.05S
STEPHEN NDAWN    N/A     61  57  88 NW7         N/A
GREENBUSH NDAW   N/A     57  57 100 VRB3        N/A
$$
  *****  WEATHER ACROSS CENTRAL AND WEST MINNESOTA  *****

CITY           SKY/WX    TMP DP  RH WIND       PRES   REMARKS
FOSSTON        PTSUNNY   63  57  82 N5        30.04S
BEMIDJI        CLOUDY    64  59  82 CALM      30.02S
PARK RAPIDS    RAIN      64  62  93 N10       30.00F FOG
ELBOW LAKE     FAIR      67  66  97 NE5       29.98S
WADENA         CLOUDY    63  63 100 NE6       29.97S
DETROIT LAKES  CLOUDY    64  61  88 NE8       30.01R
MOORHEAD       MOSUNNY   64  61  88 N7        30.02S
FERGUS FALLS   CLOUDY    66  66 100 NW6       29.98S
MORRIS MN      CLOUDY    66  64  94 NW5       29.96R
STAPLES        DRIZZLE   64  63  94 S7        30.01R
$$
  *****  WEATHER ELSEWHERE ACROSS MINNESOTA  *****

CITY           SKY/WX    TMP DP  RH WIND       PRES   REMARKS
DULUTH         CLOUDY    66  58  75 E12       30.00S
INTRNTL FALLS  CLOUDY    66  57  72 NE6       30.04R
ELY            CLOUDY    63  59  88 CALM      30.05R
CLOQUET        CLOUDY    66  59  77 E7        29.99R
WHEATON        MOSUNNY   68  68 100 W7        30.01R
BRAINERD       LGT RAIN  67  66  97 N7        29.99R
HIBBING        CLOUDY    65  57  75 E6        30.00S
ALEXANDRIA     CLOUDY    68  66  93 NE6       29.98F
SAINT CLOUD    LGT RAIN  68  68 100 NE3       29.96S
MINNEAPOLIS    CLOUDY    76  67  73 S6        29.98R
$$

  *****  WEATHER ACROSS SOUTH DAKOTA  *****

CITY           SKY/WX    TMP DP  RH WIND       PRES   REMARKS
SIOUX FALLS    PTSUNNY   73  64  73 NW5       29.98R
BROOKINGS      LGT RAIN  67  64  90 E7        29.97F
WATERTOWN      PTSUNNY   69  64  84 N10       30.01R
HURON          SUNNY     69  65  86 N7        29.98S
SISSETON         N/A     66  64  93 N6        30.00R
ABERDEEN       MOSUNNY   69  64  84 N10       30.03R
MITCHELL       MOSUNNY   71  65  81 NW9       29.98S
PIERRE         SUNNY     67  63  87 NW6       30.02S
MOBRIDGE       CLOUDY    68  62  81 N5        30.05R
RAPID CITY     CLOUDY    66  62  87 CALM      30.14R
$$

  *****  SOME WEATHER IN NEARBY STATES *****

CITY           SKY/WX    TMP DP  RH WIND       PRES   REMARKS
GLASGOW MT     RAIN      62  60  93 NE6       30.11F FOG
GREAT FALLS MT CLEAR     57  54  89 E5        30.18R
CHEYENNE WY    PTSUNNY   61  46  57 N9        30.28R
SCOTTSBLUFF NE RAIN      64  60  87 E14       30.21R
OMAHA NE       PTSUNNY   74  66  76 VRB5      29.96R
DES MOINES IA  MOSUNNY   74  66  76 SE5       29.98F
DAVENPORT IA   MOSUNNY   71  67  87 SE5       30.03S
CHICAGO IL     MOSUNNY   76  66  71 CALM      30.02S
EAU CLAIRE WI  CLOUDY    74  68  81 S3        29.98F
LA CROSSE WI   MOSUNNY   75  70  84 S5        30.00S
$$

  *****  SOME NATIONAL WEATHER *****

CITY           SKY/WX    TMP DP  RH WIND       PRES   REMARKS
LA GUARDIA NY  MOSUNNY   80  60  50 E8        29.95S
RALEIGH NC     MOSUNNY   81  77  88 W6        30.00R
ATLANTA GA     CLOUDY    78  72  81 W10       30.10R
NEW ORLEANS LA PTSUNNY   77  72  84 W14       30.02F
OKLAHOMA CITY  PTSUNNY   76  74  93 S3        30.00S
ALBUQUERQUE NM PTCLDY    71  60  68 NE3       30.24R
SALT LAKE CITY CLEAR     72  40  31 SE7       30.10R
LOS ANGELES CA PTCLDY    69  65  86 NW3       29.89R
BOISE ID       CLEAR     69  41  36 S9        30.03R
SEATTLE WA     PTCLDY    56  56 100 W3        30.14R
$$

*** WEATHER ACROSS MANITOBA...SASKATCHEWAN AND ONTARIO ***
                ***ONTARIO***

CITY           SKY/WX    TMP DP  RH WIND       PRES   REMARKS
GERALDTON      MOSUNNY   59  48  67 NW12      30.05R
THUNDER BAY    PTSUNNY   63  57  82 SW2       30.04R
SIOUX LOOKOUT  PTSUNNY   59  54  82 E3        30.10F
TORONTO        MOSUNNY   79  63  57 W12       29.95F
BIG TROUT LK   NOT AVBL
PICKLE LAKE    PTSUNNY   55  46  71 N8        30.11R
DRYDEN         MOSUNNY   63  55  77 NE10      30.09S
KENORA         MOSUNNY   63  55  77 NE10      30.08S
$$
                *** MANITOBA***

CITY           SKY/WX    TMP DP  RH WIND       PRES   REMARKS
BRANDON        MOSUNNY   59  55  88 NE6       30.16R
DAUPHIN        CLOUDY    57  54  88 W6        30.19R
ISLAND LAKE    CLOUDY    59  54  82 N5        30.18R
PILOT MOUND      N/A     59  55  88 N8          N/A
THE PAS        MOSUNNY   61  57  88 S7        30.18R
THOMPSON       MOSUNNY   50  48  93 CALM      30.19S
WINNIPEG       MOSUNNY   61  57  88 NE8       30.10F
LYNN LAKE      SUNNY     57  52  82 MISG      30.12F
CHURCHILL      MOSUNNY   55  52  88 NW5       30.14F
GILLAM         MOSUNNY   59  45  58 N9        30.17R
$$
                ***SASKATCHEWAN***

CITY           SKY/WX    TMP DP  RH WIND       PRES   REMARKS
ESTEVAN        PTSUNNY   61  57  88 E7        30.14S
KINDERSLEY     MOSUNNY   59  54  82 SE7       30.15R
LLOYDMINSTER   LGT RAIN  59  55  88 S3        30.14R
PRINCE ALBERT  MOSUNNY   57  57 100 CALM      30.16R
REGINA         PTSUNNY   61  54  77 E5        30.17R
YORKTON        PTSUNNY   55  54  94 VRB2      30.19R
N. BATTLEFORD  SUNNY     59  52  77 E6        30.17R
LA RONGE       PTSUNNY   61  54  77 SW2       30.09F
SASKATOON      PTSUNNY   59  55  88 CALM      30.19R
SWIFT CURRENT  MOSUNNY   57  54  88 E10       30.16R
$$
NOTE: THESE ARE AUTOMATED STATIONS WITH LIMITED QUALITY CONTROL
      "FAIR" INDICATES FEW OR NO CLOUDS BELOW 12,000 FEET WITH NO
      SIGNIFICANT WEATHER AND/OR OBSTRUCTIONS TO VISIBILITY.
      SKY/WX - SKY CONDITION AND SIGNIFICANT WEATHER.
      TMP - AIR TEMPERATURE.    DP   - DEWPOINT TEMPERATURE.
      RH  - RELATIVE HUMIDITY.  PRES - PRESSURE.
      HX  - HEAT INDEX.         WCI  - WIND CHILL INDEX.
$



USA.gov is the U.S. government's official web portal to all federal, state and local government web resources and services.